Location: Cranbrook Institute of Science
(42.5830°N, 83.2450°W)
Time: 00:52:21
(UTC-04:00)

Daily predictions for brighter satellites

Satellite Brightness Start Highest point End
(mag) Time Altitude Azimuth Time Altitude Azimuth Time Altitude Azimuth
ATLAS 2AS CENTAUR R/B 4.2 03:15:25 34° N 03:15:25 34° N 03:20:23 10° NNE
Cosmos 2344 4.3 03:27:45 51° ENE 03:27:45 51° ENE 03:34:14 10° NE
CENTAUR R/B 4.3 03:55:28 10° NNW 04:02:28 37° NE 04:09:57 10° ESE
USA 215 4.0 03:56:58 10° ESE 04:01:22 44° E 04:01:22 44° E
CZ-2D R/B 3.5 04:20:24 10° NNE 04:23:15 33° NNE 04:23:15 33° NNE
Lacrosse 5 rocket 4.0 04:37:12 15° N 04:37:12 15° N 04:38:48 10° NNE
SL-16 R/B 4.1 04:41:34 22° NNW 04:41:34 22° NNW 04:43:41 10° NNW
Resurs 1-4 Rocket 3.3 04:32:19 10° N 04:35:22 35° N 04:35:22 35° N
Meteor 2-4 Rocket 4.5 04:38:08 45° SE 04:39:17 51° E 04:45:01 10° NNE
SL-16 R/B 2.5 04:36:36 10° NNW 04:42:16 64° ENE 04:47:53 10° SE
NOSS 3-4 (A) 3.8 04:43:54 57° NNW 04:43:54 57° NNW 04:49:42 10° NNE
NOSS 3-4 (C) 3.8 04:43:59 58° NNW 04:43:59 58° NNW 04:49:49 10° NNE
DELTA 2 R/B (1) 4.3 04:46:13 45° ESE 04:46:13 45° ESE 04:50:25 10° E
Okean O Rocket 2.7 04:46:38 10° NNE 04:50:22 42° E 04:50:22 42° E
BREEZE-M DEB (TANK) 4.4 04:53:01 34° E 04:53:01 34° E 04:54:35 10° ENE
ARIANE 5 R/B 4.1 04:47:03 10° N 04:49:14 24° NNW 04:49:14 24° NNW
Cosmos 2227 Rocket 2.8 04:53:24 45° NNW 04:53:24 45° NNW 04:57:41 10° NNE
MOS 1-B 4.2 04:48:19 10° NNE 04:53:53 82° NNW 04:53:53 82° NNW
Cosmos 2297 Rocket 2.3 05:01:19 60° NNW 05:01:19 60° NNW 05:06:18 10° NNE
Cosmos 1892 Rocket 4.1 05:01:48 58° ENE 05:01:48 58° ENE 05:05:43 10° NNE
Cosmos 2228 4.3 04:58:58 10° N 05:03:07 39° ENE 05:07:12 10° SSE
CZ-4B R/B 4.1 04:59:18 10° NNE 05:03:37 46° E 05:04:41 38° SE
Lacrosse 5 2.8 05:12:13 35° NNW 05:12:13 35° NNW 05:16:33 10° NE
Cosmos 2100 Rocket 3.9 05:07:43 10° N 05:14:01 86° E 05:20:21 10° S
Okean 2 3.9 05:16:05 55° NNE 05:16:05 55° NNE 05:19:23 10° N
Cosmos 1802 Rocket 4.1 05:13:05 10° N 05:19:15 76° E 05:25:22 10° SSE
Cosmos 2061 Rocket 4.0 05:16:43 10° N 05:23:05 90° NNW 05:29:29 10° S
Cosmos 1346 Rocket 3.9 05:27:36 33° NNW 05:27:36 33° NNW 05:30:01 10° N
OAO 2 Rocket 4.5 05:26:15 30° S 05:26:53 31° SSE 05:31:32 10° ESE
ADEOS II 3.2 05:22:35 10° NNE 05:27:35 43° E 05:32:34 10° S
CZ-4B DEB 4.2 05:24:35 10° NNE 05:30:06 82° ESE 05:34:08 19° S
Cosmos 1603 4.2 05:24:29 10° NNW 05:30:10 59° ENE 05:35:46 10° SE
Cosmos 990 Rocket 4.3 05:30:49 21° S 05:34:22 67° ESE 05:39:35 10° NNE
Cosmos 2298 Rocket 4.1 05:38:31 47° WSW 05:39:40 57° WNW 05:44:56 10° NNE
Cosmos 1000 Rocket 4.4 05:34:54 15° SSW 05:40:14 75° W 05:46:35 10° N
Genesis I 3.5 05:40:15 41° S 05:41:25 64° ESE 05:45:24 10° NE
RESURS DK-1 4.2 05:43:20 18° NNW 05:43:20 18° NNW 05:45:18 10° N
ADEOS Rocket 3.2 05:36:01 10° NNE 05:43:06 86° ESE 05:49:23 10° SSW
Cosmos 2016 Rocket 3.9 05:37:32 10° N 05:43:54 84° W 05:50:09 10° S
Cosmos 2058 Rocket 3.3 05:42:25 10° NNW 05:46:15 46° WNW 05:46:15 46° WNW
USA 215 3.7 05:40:41 10° SSE 05:46:41 38° SW 05:48:46 31° W
Cosmos 2173 Rocket 4.0 05:42:44 10° NNW 05:48:41 56° W 05:54:40 10° SSW
PAYLOAD B 4.2 05:46:01 10° N 05:51:27 59° WNW 05:54:55 22° SW
EXPRESS MD2 3.2 05:51:20 54° WSW 05:51:54 63° SSW 05:57:30 10° SE
Cosmos 1459 Rocket 4.1 05:45:56 10° NNW 05:52:04 52° W 05:58:08 10° SSW
Tiangong 1 0.9 05:52:48 76° SSE 05:52:48 76° SSE 05:55:43 10° ESE
Cosmos 2150 Rocket 4.2 05:51:06 37° WSW 05:52:42 49° WNW 05:57:43 10° N
Cosmos 1174 3.0 05:52:40 73° WNW 05:52:51 78° WSW 05:56:13 10° SSE
Meteor 2-15 4.3 05:46:54 10° S 05:52:57 80° W 05:59:03 10° N
Cosmos 967 Rocket 4.4 05:48:53 23° SW 05:53:12 83° WNW 05:59:38 10° NNE
CENTAUR R/B 3.0 05:45:58 10° NW 05:53:46 68° WSW 06:02:02 10° SSE
SL-08 R/B 4.4 05:47:58 10° N 05:54:15 84° W 06:00:36 10° S
Thor Agena Rocket 3.5 05:49:04 10° S 05:54:21 73° WSW 05:59:39 10° NNW
Cosmos 1515 3.8 05:51:02 10° S 05:54:50 73° E 05:58:39 10° NNE
CZ-2C R/B 4.2 05:56:28 36° WSW 05:56:44 36° W 06:01:03 10° NNW
Meteor 1-31 Rocket 4.1 05:55:27 10° NNE 05:59:10 41° E 06:02:54 10° S
FALCON 9 R/B 4.2 05:54:19 17° SW 05:59:38 46° SSE 06:22:10 10° E
Cosmos 1340 4.0 05:58:04 10° SSE 06:01:39 42° E 06:05:16 10° NNE
Okean-O 2.7 05:57:12 10° NNE 06:01:40 82° E 06:06:06 10° SSW
CZ-4B R/B 3.4 05:59:10 10° N 06:04:22 48° WNW 06:08:27 17° SW
CZ-2D R/B 3.9 06:02:28 10° NNW 06:04:35 14° NW 06:04:35 14° NW
Cosmos 2123 Rocket 3.9 05:59:17 10° S 06:05:27 85° W 06:11:40 10° N
NOSS 2-2 (D) 3.5 06:04:35 29° SW 06:06:40 69° NW 06:11:30 10° NNE
Meteor PRIRODA 3.6 06:06:00 10° NNE 06:09:44 89° E 06:13:26 10° SSW
Cosmos 1626 Rocket 3.4 06:05:57 10° SSW 06:10:17 65° W 06:14:37 10° N
Cosmos 1898 Rocket 4.3 06:09:59 25° W 06:12:00 33° WNW 06:16:46 10° N
Meteor 2-15 Rocket 4.4 06:08:13 10° SSW 06:14:13 64° W 06:20:16 10° N
Cosmos 2227 4.2 06:10:25 12° SW 06:15:43 64° WNW 06:21:27 10° NNE
Resurs 1-4 Rocket 4.1 06:15:14 10° NW 06:16:27 11° NW 06:16:27 11° NW
Lacrosse 5 rocket 4.0 06:14:39 10° NNW 06:16:40 13° N 06:18:39 10° NNE
NOSS 5 (C) 4.4 06:14:23 15° SSW 06:17:03 73° SE 06:20:10 10° NE
Cosmos 1125 Rocket 3.9 06:13:16 10° S 06:18:24 65° ESE 06:23:34 10° NNE
BREEZE M DEB (TANK) 4.1 06:16:22 18° WNW 06:19:06 44° N 06:30:07 10° ENE
Cosmos 1937 Rocket 4.1 06:16:20 20° WSW 06:19:29 38° WNW 06:24:25 10° N
Cosmos 1864 Rocket 4.5 06:13:38 10° NNW 06:19:57 68° W 06:26:14 10° S
NOSS 2-2 (C) 3.9 06:19:33 21° WSW 06:22:09 50° NW 06:26:55 10° NNE
NOSS 2-2 (E) 4.1 06:20:27 21° WSW 06:23:00 45° NW 06:27:50 10° NNE
Cosmos 2098 Rocket 3.8 06:20:58 10° NNW 06:24:52 35° W 06:29:43 10° SSW
SL-16 R/B 3.4 06:21:59 10° WNW 06:25:48 19° W 06:29:37 10° SW
Okean O Rocket 3.1 06:23:53 10° NNW 06:26:53 18° WNW 06:27:49 17° W
CZ-4B R/B 3.7 06:24:15 10° NNE 06:28:08 87° ESE 06:31:51 10° SSW
Cosmos 972 Rocket 4.4 06:24:25 10° SSW 06:29:58 58° WNW 06:36:16 10° N
DELTA 2 R/B (1) 3.7 06:27:00 17° W 06:31:12 64° S 06:36:43 10° ESE
Feng Yun 1-1 Rocket 4.3 06:25:48 10° N 06:31:26 65° WNW 06:37:12 10° SSW
Cosmos 1602 Rocket 4.2 06:31:18 10° SW 06:35:22 35° WNW 06:39:26 10° N
PSLV R/B 4.3 06:32:45 10° N 06:36:36 32° WNW 06:40:23 10° SW
Cosmos 2227 Rocket 4.2 06:36:03 10° NW 06:37:28 11° NW 06:38:53 10° NNW
Iridium 4 Rocket 3.9 06:32:58 10° SSE 06:37:38 60° E 06:41:58 10° N
Cosmos 1066 Rocket 4.2 06:33:33 10° SSW 06:39:13 72° W 06:45:03 10° N
Cosmos 2228 4.4 06:37:25 10° NW 06:40:21 18° W 06:43:17 10° SW
Cosmos 2084 Rocket 3.3 06:36:36 10° NW 06:40:26 59° WSW 06:44:27 10° SSE
NOAA 6 4.1 06:38:08 10° NNE 06:43:23 88° WNW 06:48:34 10° SSW
Cosmos 1758 Rocket 4.3 06:39:13 10° S 06:43:27 56° E 06:47:40 10° NNE
SKYMED 2 3.7 06:41:08 10° SSE 06:45:28 81° ENE 06:49:50 10° N
Cosmos 2297 Rocket 4.1 06:43:30 10° WNW 06:45:51 12° NW 06:48:12 10° NNW
MOS 1 Rocket 3.6 06:41:13 10° N 06:46:00 56° WNW 06:51:03 10° SSW
USA 129 2.6 06:47:47 10° SSW 06:49:07 18° W 06:49:50 14° WNW
Cosmos 2233 Rocket 4.0 06:43:38 10° NNW 06:49:49 62° W 06:55:54 10° S
SL-24 R/B 3.8 06:47:57 10° N 06:52:08 81° WNW 06:55:53 10° SSW
DNEPR-1 R/B 3.7 06:49:30 10° NNW 06:54:28 86° NE 06:58:45 10° SE
Lacrosse 5 3.9 06:52:55 10° NW 06:56:09 17° N 06:59:23 10° NNE
COBE Rocket 4.3 06:55:53 10° N 07:00:17 38° WNW 07:04:35 10° SW
SeaSat 1 3.7 06:56:19 10° SE 07:00:59 45° ENE 07:05:41 10° NNW
Cosmos 1943 3.3 07:00:46 10° NNW 07:06:14 53° WSW 07:11:41 10° S
BREEZE-M DEB (TANK) 3.7 06:57:16 10° WNW 07:06:30 39° SW 07:09:46 10° SSE
